GFSSGP_850_temp_024.txt.gz
Temp
23 23 21 21 22 23 24 21 29 27 29 28 28 28 27 27 26 22 21 21 21 19 20 21 20 19 19 19 19 19 19 19 19 19 18 18 17 18 18 17 17 17 17 17 17 17 17 17 16
24 22 22 22 23 23 23 25 27 28 28 28 27 28 28 26 25 22 21 21 20 19 19 21 20 19 19 19 19 19 19 19 19 19 19 19 19 19 18 18 18 18 17 16 17 17 17 17 17
23 22 23 23 25 25 22 24 28 29 28 28 28 27 27 26 25 23 22 21 20 20 19 19 20 19 19 19 19 19 19 20 20 20 20 20 20 19 19 19 19 19 18 17 17 17 17 17 17
21 22 23 24 25 26 21 29 29 29 28 27 28 28 26 26 25 24 22 21 21 20 19 19 20 19 18 18 19 19 20 20 20 20 20 20 20 20 19 19 20 20 19 18 18 18 17 17 17
23 23 24 25 26 29 30 30 29 28 29 28 27 27 26 25 24 23 22 21 21 20 19 19 19 19 19 18 18 19 19 20 20 20 20 20 20 20 20 19 19 19 20 19 19 19 18 17 17
23 25 25 25 26 28 30 30 29 29 29 29 27 28 27 25 25 23 21 21 21 21 19 19 19 19 18 18 18 19 19 20 20 20 20 20 20 20 20 19 19 19 19 19 19 19 19 18 17
23 23 24 25 26 27 29 29 29 28 28 29 28 27 26 24 23 22 22 22 21 21 19 19 18 18 17 17 18 19 19 20 20 20 20 20 20 20 19 19 19 19 19 19 19 19 19 19 18
23 24 25 25 25 26 29 29 28 28 27 28 27 27 26 25 23 22 22 22 21 21 20 20 18 18 18 17 17 18 19 19 20 19 19 19 20 20 20 19 19 19 19 19 19 19 19 19 18
23 22 22 24 25 25 28 27 28 28 27 27 27 27 26 25 23 23 22 22 22 21 21 20 19 19 18 18 17 18 18 19 19 19 19 19 19 20 20 19 18 18 19 19 19 19 18 18 18
23 22 24 27 26 25 26 26 27 27 27 27 27 28 27 25 23 23 23 22 22 22 21 21 20 19 18 16 17 17 18 19 19 19 19 18 19 19 19 19 19 18 18 18 18 18 18 18 18
24 23 25 25 26 25 25 25 26 26 24 27 26 27 27 25 24 23 23 23 23 22 21 21 21 20 19 17 17 17 18 18 18 19 18 18 19 18 19 19 19 18 18 18 18 18 17 17 17
23 25 25 26 25 25 24 24 24 25 25 26 26 26 26 25 24 23 23 23 23 23 22 21 20 21 20 19 17 17 16 17 17 17 18 17 19 18 19 19 19 18 18 17 17 17 17 17 17
24 24 25 25 25 24 24 24 23 24 24 25 25 25 26 26 25 24 24 23 24 24 23 22 20 20 20 19 18 17 16 16 16 16 17 17 18 18 18 18 18 18 18 17 17 17 17 16 16
24 23 23 24 24 24 24 24 24 25 25 25 26 26 25 26 25 25 25 24 24 24 23 22 21 20 20 19 18 17 17 16 16 16 17 17 18 18 18 18 18 18 18 17 17 16 16 15 15
23 22 22 24 25 25 23 22 23 25 26 26 26 26 26 26 26 25 25 24 24 24 24 23 22 20 20 19 19 18 17 16 16 16 16 17 17 17 18 17 18 17 17 17 16 16 16 15 15
23 23 22 26 25 23 23 20 23 26 25 25 25 25 26 26 26 26 26 25 25 24 24 24 23 22 20 20 19 18 17 16 16 16 16 17 17 17 17 17 17 17 17 17 16 16 15 15 15
23 22 23 25 26 25 23 21 24 25 25 25 25 25 25 26 26 26 25 25 26 25 24 24 24 22 21 19 19 18 17 16 16 15 15 16 17 17 17 17 17 17 17 17 16 16 15 15 14
21 22 22 21 24 24 22 22 23 25 25 25 25 25 25 25 20 20 20 20 23 24 24 24 24 23 21 20 18 18 17 17 16 15 15 15 16 17 16 17 17 17 16 16 16 16 15 14 14
21 21 21 22 24 23 21 21 22 24 24 24 25 21 19 18 17 16 16 18 19 20 20 20 20 22 21 20 19 18 17 16 15 15 14 14 15 16 16 16 16 16 16 16 16 15 15 15 13
21 20 21 22 23 21 20 20 22 23 22 20 19 17 17 16 16 15 15 15 14 15 16 18 19 19 19 19 20 18 17 17 16 15 14 14 14 16 16 16 16 16 16 15 15 15 15 14 13
21 21 20 19 20 21 21 21 23 20 19 18 17 16 15 15 15 15 14 14 14 14 14 14 15 17 17 18 17 18 17 16 16 14 14 14 13 14 15 15 15 15 15 15 15 15 14 14 12
19 20 19 19 18 18 20 17 19 20 18 17 17 16 15 14 14 14 13 13 13 13 13 13 13 13 15 16 16 15 18 16 16 15 15 14 13 13 14 14 14 15 15 15 15 14 14 13 12
18 19 18 18 18 17 19 18 21 20 18 17 17 16 15 14 13 12 12 12 12 12 12 12 13 12 13 15 16 16 14 16 16 15 14 13 13 12 13 13 14 14 14 14 15 14 14 13 12
19 18 18 18 18 16 19 19 20 20 17 16 16 16 15 14 12 12 11 11 11 11 12 12 12 12 12 12 13 15 14 14 15 14 14 13 12 12 12 13 13 13 14 14 14 14 13 13 12
18 16 15 18 16 17 20 18 20 16 16 15 14 14 13 13 13 12 11 11 11 11 11 11 11 11 11 11 12 12 13 13 14 15 14 13 12 11 11 13 12 13 13 14 13 13 13 12 12
16 16 15 15 17 16 18 17 18 17 15 14 13 13 13 13 12 11 11 10 10 10 10 10 10 10 10 10 11 11 11 12 13 13 13 14 13 11 11 12 13 12 12 13 12 12 12 11 10
16 15 15 14 15 14 16 19 17 15 14 13 13 13 13 12 12 11 10 10 10 10 10 10 10 10 10 10 10 10 10 11 12 12 13 13 13 12 11 11 12 12 11 12 12 12 11 11 10
16 16 13 13 13 13 16 15 15 12 12 12 12 13 12 12 11 11 10 10 10 10 10 10 10 10 9 9 9 9 9 9 10 11 12 12 12 12 11 10 11 11 11 11 11 11 11 10 10
14 13 14 13 13 11 11 12 14 12 11 11 12 13 12 12 11 10 10 10 9 9 10 9 9 9 9 9 9 8 8 8 9 10 11 12 11 11 11 9 10 11 10 11 11 11 11 10 9
13 12 13 10 10 9 7 8 13 12 12 12 12 12 12 11 10 10 10 9 9 9 8 8 8 8 9 9 8 8 7 7 8 9 10 11 11 11 11 10 10 10 10 10 11 11 11 10 9

GFSSGP_850_temp_027.txt.gz
Temp
24 24 23 21 19 19 21 21 23 25 26 27 27 27 25 25 24 21 21 20 20 21 21 21 20 20 19 20 19 20 19 19 19 19 19 19 19 18 18 18 17 17 17 17 17 17 17 17 17
24 24 22 22 19 20 22 23 25 25 27 27 27 27 25 23 24 23 21 20 21 21 21 21 21 20 20 20 19 19 19 20 20 20 20 20 19 19 19 19 18 18 17 18 17 17 17 17 17
23 22 22 19 19 22 22 24 24 26 27 27 27 27 27 24 24 24 23 21 21 20 20 21 21 20 20 20 19 19 20 20 20 20 20 20 20 20 20 20 19 18 17 18 18 18 17 17 17
23 22 22 20 22 23 23 25 27 26 27 27 27 25 26 25 26 25 23 21 20 19 19 20 19 20 20 20 19 19 19 20 20 20 20 20 20 20 20 20 20 20 19 18 18 18 18 17 17
22 22 20 21 22 25 24 27 28 27 27 27 27 26 25 24 25 25 22 22 20 20 19 19 19 20 19 19 19 19 19 20 20 20 20 20 20 20 20 20 20 20 20 19 19 18 18 17 17
22 22 19 20 22 24 26 28 28 26 27 27 26 26 24 23 24 24 23 22 20 20 19 19 19 19 20 18 18 19 19 19 20 20 20 20 20 20 20 20 20 20 20 20 19 19 18 17 17
21 18 20 22 22 23 25 28 26 26 27 27 27 26 24 24 23 24 23 21 21 20 20 19 19 19 19 18 18 18 19 19 20 20 20 20 20 20 20 20 20 20 20 20 20 19 19 18 18
23 19 22 21 21 22 25 27 27 27 26 27 27 24 22 25 25 23 22 21 21 21 20 20 19 19 19 19 18 18 18 19 20 20 20 20 20 20 20 20 20 20 20 20 20 19 19 19 18
23 18 18 22 23 23 25 22 26 26 26 26 27 26 27 26 24 22 22 22 21 21 21 20 20 19 19 19 19 18 18 19 19 19 20 19 20 20 20 20 20 19 19 19 19 19 19 19 19
21 16 20 22 24 23 24 24 24 24 25 26 26 27 25 25 25 23 22 22 22 21 21 21 20 20 20 19 19 19 18 18 19 19 19 19 20 20 20 20 20 19 19 19 19 19 19 19 18
22 18 21 23 25 25 24 23 24 23 21 25 25 26 25 24 23 23 23 22 22 22 21 21 21 20 20 19 19 19 18 18 18 19 18 18 19 20 19 19 19 19 19 19 18 18 18 18 18
22 23 23 24 24 24 23 24 23 23 23 24 25 25 25 25 24 23 23 23 22 22 22 21 21 20 20 19 19 19 18 18 18 18 18 18 19 19 19 19 19 19 19 19 18 18 18 18 17
22 22 23 23 23 23 24 22 22 23 24 24 24 25 25 25 24 24 24 23 23 23 23 22 21 21 20 20 20 18 18 18 18 18 18 17 18 18 18 18 19 19 19 19 18 18 17 17 17
22 22 22 23 23 23 22 22 23 24 25 24 25 25 25 25 26 25 25 24 23 24 23 23 22 21 21 20 20 19 18 18 17 17 17 17 17 17 17 18 18 18 18 18 18 17 17 17 17
22 19 18 21 22 21 23 21 22 25 24 25 24 25 25 25 22 20 22 22 25 24 24 23 23 22 22 21 20 19 19 18 18 16 16 16 16 16 17 17 18 18 18 18 18 17 17 17 17
21 20 19 20 24 22 23 18 21 25 25 25 25 25 25 17 18 17 19 21 22 23 22 22 23 23 22 21 21 20 19 19 18 17 16 16 16 16 16 16 17 17 17 17 17 17 17 16 16
18 18 20 18 21 22 21 18 20 24 24 24 24 23 17 16 16 16 16 16 18 19 20 21 20 19 21 22 20 20 20 19 18 17 17 16 16 16 15 15 16 16 17 17 17 17 16 16 16
17 17 18 17 20 20 19 17 18 22 22 17 17 16 15 14 14 14 14 15 16 16 17 18 18 18 18 18 19 19 19 18 18 17 17 17 16 15 15 15 15 16 16 16 16 16 16 16 15
18 18 17 17 19 18 17 17 19 18 16 15 14 14 14 14 13 13 13 14 14 15 16 15 15 16 16 16 17 17 18 18 18 18 17 17 17 16 15 15 15 15 16 16 16 16 16 15 15
18 17 16 17 19 18 17 17 16 15 15 14 13 13 13 13 13 13 13 14 14 14 14 15 15 14 14 15 16 16 16 16 18 18 18 17 17 16 16 14 14 14 15 15 15 15 16 15 14
18 18 16 16 16 17 17 15 16 15 15 14 14 13 13 13 12 12 13 13 13 13 12 13 14 14 15 14 15 16 16 15 15 16 17 16 16 16 16 15 14 14 14 14 15 15 15 15 14
16 17 17 16 14 15 16 13 15 14 13 13 13 13 12 12 12 11 11 12 11 11 12 11 11 12 13 14 13 13 13 13 14 14 15 16 16 16 15 15 14 14 14 14 14 14 15 14 14
16 17 15 15 14 15 15 14 14 14 12 11 12 13 13 12 12 11 11 11 11 10 10 11 11 10 10 11 12 11 11 11 12 14 14 14 15 15 14 15 14 13 13 13 13 13 14 14 14
17 16 14 14 12 13 15 15 14 12 12 11 11 13 13 12 11 11 11 10 10 10 10 10 10 10 10 10 10 11 11 10 11 11 12 12 14 14 14 14 14 13 13 13 13 12 13 13 13
13 12 11 13 13 13 16 15 11 11 11 11 11 13 12 12 11 11 10 10 10 10 10 10 10 10 10 10 10 10 10 10 9 10 10 11 12 13 14 13 13 13 13 13 12 12 12 12 12
13 13 11 12 12 12 14 13 11 11 12 12 12 12 12 12 11 11 10 10 10 9 9 10 10 10 9 9 9 9 9 9 9 9 9 10 10 11 13 13 13 13 13 13 12 12 12 12 12
13 12 12 11 11 10 11 13 12 10 10 11 11 12 12 12 11 10 10 10 9 9 9 9 8 8 9 9 9 9 9 9 9 9 9 9 9 10 11 12 13 12 12 12 12 11 11 11 11
14 14 11 8 10 9 10 12 11 9 9 10 10 11 11 10 10 10 9 9 9 9 9 9 8 8 8 8 9 8 8 8 8 8 8 8 9 9 10 11 12 12 12 12 11 10 11 10 10
11 10 11 9 8 7 7 8 8 8 9 10 11 11 11 10 10 9 9 9 9 9 8 8 8 8 8 8 8 7 7 7 7 7 7 7 8 9 9 10 11 11 11 11 11 10 10 10 10
12 11 10 5 8 6 2 6 8 9 10 10 10 10 10 10 9 9 9 9 9 8 8 7 7 7 7 7 7 7 7 7 7 7 7 7 7 7 9 9 10 11 11 11 11 10 10 9 9

GFSSGP_850_temp_030.txt.gz
Temp
23 22 23 22 20 19 21 23 23 24 25 26 27 26 24 24 24 21 24 22 21 21 21 20 20 20 20 20 19 19 19 19 19 19 19 19 19 19 18 18 18 18 18 18 17 18 18 18 18
23 22 22 22 19 20 20 22 24 24 27 27 27 25 24 23 24 24 24 23 21 21 21 21 20 20 20 20 20 19 19 19 19 20 20 20 20 19 19 18 18 19 18 18 17 17 17 17 17
23 23 22 18 18 21 22 23 24 25 27 27 26 26 25 25 25 25 24 24 22 20 20 20 20 20 20 20 20 20 20 20 20 20 20 20 20 20 20 19 19 19 19 19 18 17 17 17 17
24 22 21 19 22 22 23 24 26 25 27 27 26 25 25 26 26 25 24 23 22 21 20 20 20 20 19 19 19 19 20 20 20 20 20 20 20 20 20 20 20 20 19 19 19 18 17 17 17
23 22 18 20 21 23 23 25 26 25 26 26 26 24 24 25 25 25 24 23 22 21 20 19 19 19 19 19 19 19 19 20 20 20 20 20 20 20 20 20 20 20 20 20 19 19 18 17 16
23 21 18 19 21 22 23 26 25 25 25 26 26 24 24 24 24 25 23 23 22 21 20 19 19 19 19 19 18 19 19 19 20 20 20 20 20 20 20 20 20 20 20 20 19 19 18 16 16
20 17 19 21 21 21 24 26 24 24 25 26 27 24 23 24 24 24 23 22 21 20 20 19 19 19 19 19 19 18 18 19 19 20 20 20 20 20 20 20 20 20 20 20 20 19 19 19 17
22 18 21 20 20 21 23 25 25 25 25 26 26 23 23 26 24 23 22 21 20 20 20 20 19 19 19 19 19 18 18 18 19 19 19 19 19 20 20 20 20 20 20 20 20 19 19 18 18
22 17 17 20 22 22 24 22 24 24 25 25 26 25 26 26 23 22 21 20 20 20 20 20 20 20 20 19 19 19 18 18 18 19 19 19 19 19 19 19 19 19 19 19 19 19 19 19 18
20 15 18 20 23 22 23 23 23 23 23 23 25 25 25 25 24 23 21 21 21 21 21 20 20 20 20 19 19 19 19 18 18 19 19 19 19 19 19 19 19 19 19 19 19 19 19 18 18
20 18 19 22 24 23 23 22 23 23 19 23 24 24 24 24 24 23 22 22 22 22 21 21 21 21 20 20 19 19 19 18 18 18 18 18 19 19 19 19 19 19 19 18 18 19 18 18 17
21 21 22 23 23 22 22 23 22 23 24 24 24 24 24 23 23 23 22 22 22 21 21 21 21 21 21 20 20 19 19 19 18 18 18 18 18 18 18 18 18 18 18 18 18 18 18 18 17
20 21 22 22 23 22 22 22 21 23 24 24 24 24 21 21 21 20 20 20 21 22 22 22 21 21 21 21 20 20 20 19 19 18 18 18 18 18 17 17 17 18 18 18 18 18 18 17 17
20 20 21 22 21 21 21 20 22 24 24 25 24 20 20 20 19 20 20 20 21 21 21 20 21 22 21 21 21 21 21 20 19 19 19 18 18 17 17 17 17 17 17 17 17 17 17 17 17
21 19 17 21 21 21 21 20 20 24 24 24 20 18 16 15 16 15 15 15 17 19 20 21 20 19 20 22 22 21 21 20 19 20 19 18 18 17 17 17 16 16 17 17 17 17 17 16 16
19 18 17 20 20 22 22 17 20 23 22 19 16 14 14 13 14 14 14 14 15 17 18 19 20 18 18 18 19 18 19 20 19 19 18 18 18 17 17 16 16 16 16 16 16 16 16 16 16
14 17 18 17 19 18 20 18 18 18 19 14 14 13 12 12 13 13 14 14 14 14 16 16 17 17 17 16 16 17 18 17 17 18 18 18 18 17 17 17 16 16 16 15 15 16 16 16 16
17 17 17 17 18 17 17 15 13 14 13 13 13 12 12 12 12 13 13 14 14 14 15 15 15 15 15 16 16 16 16 16 17 17 18 18 18 17 17 17 16 16 15 15 15 15 15 15 15
18 17 16 16 18 17 17 13 12 13 12 12 12 12 11 12 12 13 13 13 14 14 14 15 15 15 15 15 15 15 15 15 15 15 16 16 16 17 17 16 16 16 15 15 15 14 14 14 14
18 17 15 15 17 17 15 12 12 13 12 12 12 11 12 12 12 12 12 12 12 13 13 13 13 14 14 15 15 14 14 14 14 14 14 15 15 16 16 16 16 16 16 15 15 14 14 14 13
16 17 16 15 15 15 16 12 13 13 12 12 11 11 11 11 11 11 11 11 11 11 11 12 12 11 11 12 14 15 15 15 15 14 14 14 14 14 15 15 15 16 15 15 15 14 14 13 13
15 17 16 15 14 13 15 11 12 11 10 10 11 11 11 11 11 11 11 11 10 10 11 11 11 11 10 10 10 11 11 11 12 12 12 13 13 13 14 14 15 15 15 15 15 14 13 13 13
15 16 15 15 13 14 13 12 12 11 10 10 11 12 12 11 11 10 11 10 10 10 10 10 10 10 10 10 10 10 10 10 10 10 11 12 12 12 12 12 14 14 15 15 14 14 13 13 13
15 15 13 11 10 11 13 12 11 10 10 10 11 12 12 12 11 11 10 10 10 10 10 10 9 9 9 9 9 9 9 9 9 10 9 9 10 10 11 11 11 13 13 14 14 14 13 13 12
12 10 10 14 11 12 13 12 10 9 10 11 11 11 12 12 11 10 10 10 10 10 10 9 10 9 9 9 9 9 9 9 8 9 8 8 8 9 9 10 10 10 12 13 13 13 13 12 12
13 12 10 13 11 11 11 12 9 9 11 11 11 11 11 11 10 10 9 9 9 9 9 9 9 9 9 9 8 8 8 8 8 8 8 8 8 8 8 9 10 9 10 12 13 13 13 12 12
13 11 12 11 9 9 9 10 10 9 9 10 10 10 10 10 10 9 9 9 9 9 9 8 8 8 8 8 8 8 7 7 7 7 7 7 8 7 7 7 9 9 9 10 12 13 13 12 12
13 13 11 8 10 9 8 9 9 8 8 8 9 9 10 10 9 9 9 9 9 9 9 8 8 7 7 7 7 8 8 7 7 7 7 7 7 7 7 7 8 9 8 9 10 11 12 12 12
10 10 9 8 7 8 6 8 7 7 8 8 9 9 9 9 8 8 9 9 9 8 8 8 7 8 8 7 6 6 6 7 6 6 7 7 6 6 6 6 7 8 8 8 8 10 11 11 12
11 11 7 5 7 5 1 4 8 7 9 9 9 9 9 8 8 8 7 7 8 7 7 7 7 7 6 6 6 6 6 6 6 6 6 6 6 6 6 6 6 7 7 7 7 8 10 11 11

GFSSGP_850_temp_033.txt.gz
Temp
22 23 23 23 19 17 21 22 22 24 24 26 26 25 24 25 24 21 24 23 22 22 20 20 19 19 19 19 19 19 19 19 19 19 19 19 19 19 18 18 18 18 18 18 18 18 18 18 18
22 23 23 22 18 19 19 22 23 23 25 25 25 25 24 24 25 25 24 23 22 22 21 20 20 19 19 19 19 19 19 19 19 19 20 20 19 19 19 19 19 18 18 18 18 18 18 18 17
23 23 23 17 17 20 20 23 22 25 26 25 25 25 25 25 25 25 25 24 22 21 21 21 20 19 19 19 19 19 19 19 20 20 20 20 20 20 19 19 19 19 18 18 17 17 18 18 18
23 23 22 19 21 22 22 22 24 25 26 26 25 24 25 25 25 25 25 24 23 21 20 20 20 19 19 19 19 19 19 19 20 20 20 20 20 20 20 19 19 20 19 19 18 17 17 17 17
24 22 17 19 21 21 21 23 24 24 25 25 25 24 25 25 25 25 24 23 23 22 20 20 20 19 19 19 18 18 18 19 19 20 20 20 20 20 20 19 19 19 19 19 18 17 17 17 17
23 21 18 19 21 21 21 23 24 23 25 26 25 24 25 25 25 25 24 23 22 21 20 20 20 19 19 19 19 18 18 19 19 19 20 20 19 19 19 19 19 19 19 19 19 18 16 16 16
20 16 19 20 20 21 23 24 24 23 23 25 25 24 24 26 24 23 23 22 22 21 20 20 20 19 19 19 19 19 18 18 19 19 19 19 19 19 19 19 19 19 19 19 19 18 15 15 14
22 17 20 19 19 21 22 23 24 23 23 24 24 22 24 24 23 22 22 22 21 20 20 20 19 19 19 19 18 18 18 18 19 19 19 19 19 19 19 19 19 19 19 19 19 19 18 17 15
22 16 17 20 20 22 23 21 23 23 23 24 24 24 23 24 23 22 21 20 20 20 20 20 19 19 19 19 19 18 18 18 18 19 19 19 19 19 19 19 19 18 18 19 19 19 18 18 17
20 15 19 19 21 22 22 22 22 22 22 23 24 24 23 24 23 22 22 21 21 21 21 20 20 20 19 20 19 19 19 18 18 18 18 19 18 18 18 18 18 18 18 18 18 18 18 18 17
19 18 19 21 22 21 21 21 22 22 19 23 22 21 21 22 21 20 20 18 18 19 20 21 21 20 20 20 20 20 20 19 19 18 18 18 18 18 18 18 18 18 18 18 18 18 17 17 17
20 20 20 21 22 21 20 22 21 21 23 20 19 19 20 21 20 19 19 19 19 19 19 19 19 20 20 20 20 20 20 20 19 19 18 18 18 19 18 18 17 17 17 17 17 17 17 17 17
19 20 21 21 22 21 20 20 20 22 18 17 18 18 17 17 17 17 18 18 19 19 19 19 18 19 19 19 20 20 20 20 19 19 19 19 19 18 18 18 18 17 17 17 17 17 17 17 16
19 19 19 21 21 20 19 20 21 20 18 17 17 15 15 15 15 17 17 16 18 17 19 19 19 19 19 18 18 18 18 18 18 18 19 19 18 18 18 18 18 17 17 17 16 16 16 16 16
19 18 17 21 20 20 19 20 18 15 17 14 13 13 13 13 14 14 14 14 15 15 15 18 19 20 19 17 17 17 17 17 18 18 17 17 18 18 18 17 17 17 17 16 16 16 16 16 15
17 16 16 19 19 20 21 17 13 15 14 11 12 12 12 12 13 13 13 14 14 14 14 14 14 15 15 15 15 15 15 16 16 17 17 17 17 17 17 17 17 17 16 16 16 16 16 15 15
13 16 17 17 18 17 18 14 12 12 12 11 11 11 12 12 12 12 13 13 14 14 15 15 15 14 14 14 14 15 15 15 15 15 16 16 16 16 17 17 17 16 16 16 16 16 15 15 15
16 16 17 16 17 16 11 11 11 11 11 11 11 11 11 11 11 12 12 13 13 14 14 14 14 15 15 15 14 14 14 14 14 15 15 15 16 16 16 16 16 16 16 16 16 15 15 15 15
17 16 15 14 16 15 11 10 11 11 11 11 11 11 11 11 11 12 12 12 13 13 13 14 14 14 14 15 15 15 14 14 14 14 14 14 14 15 15 15 15 15 15 15 15 15 14 14 14
17 16 14 14 16 15 11 11 11 11 10 10 11 11 11 11 11 11 12 12 12 12 12 12 12 12 12 12 12 12 13 13 13 13 13 13 13 14 14 14 15 15 15 15 15 15 15 14 13
15 15 15 15 14 13 11 11 10 11 11 10 10 10 11 11 11 11 11 11 11 11 11 11 11 11 11 11 11 11 12 12 12 13 13 13 12 12 13 13 14 14 14 15 15 15 14 14 13
15 16 15 14 13 13 14 11 9 10 10 10 10 11 10 10 11 11 11 11 11 11 11 11 11 11 11 10 9 9 9 9 10 10 10 11 11 12 11 11 11 12 13 13 14 14 15 14 13
15 15 14 14 13 13 12 11 10 8 10 10 10 11 11 10 10 10 10 10 10 10 10 11 10 10 10 10 10 9 9 9 9 9 9 9 10 10 11 11 10 10 11 12 12 13 14 14 13
13 14 11 9 9 10 11 12 9 8 9 10 10 11 11 11 10 10 10 10 10 10 10 10 10 10 10 9 9 9 9 8 8 8 8 7 8 9 9 9 10 10 10 10 11 11 12 13 13
12 10 10 13 11 12 12 11 10 9 8 9 10 10 10 10 11 10 10 10 10 10 9 9 9 9 8 8 8 8 8 8 7 7 7 7 7 7 7 8 8 8 9 9 10 10 10 11 13
12 11 10 14 11 10 9 11 9 8 10 10 10 10 10 10 10 10 9 9 9 9 9 8 8 8 8 8 8 8 8 7 7 7 6 7 7 7 7 7 7 7 8 8 9 9 9 10 11
13 10 10 10 8 7 8 10 9 8 8 9 9 9 9 9 10 9 9 8 8 8 8 8 8 7 8 7 7 7 7 7 7 6 6 6 6 6 7 6 6 7 7 8 8 9 9 9 9
13 11 10 7 11 10 8 8 9 7 6 6 7 8 9 9 9 9 8 8 8 8 8 7 7 7 7 7 7 7 6 6 6 6 6 6 6 6 6 6 6 6 6 7 7 8 8 8 8
9 9 8 7 6 8 6 7 7 6 7 7 7 8 8 8 8 8 7 7 7 7 7 7 7 7 6 6 6 6 6 6 6 6 7 6 6 6 5 6 5 5 6 6 7 7 7 7 7
10 10 7 5 8 4 1 4 8 6 7 8 7 8 8 8 8 7 7 7 7 6 6 6 6 6 6 6 6 6 6 6 5 5 5 5 5 5 5 5 5 5 5 6 6 6 6 6 6